Flight Track Log - Related Links

Times and Time Zones

All times are in EDT time to prevent confusion due to time zone crossing. See the EJA122 flight status page for this flight to view local times or setup timezone preferences in your user account.

Time Position Orientation Groundspeed Altitude Reporting Facility
EDT Latitude Longitude Course Direction KTS MPH feet Rate Location/Type
Mon 09:05:15 AM 42.6622 -83.4464 279° West 166 191 1,700  Level Cleveland Center
Mon 09:05:51 AM 42.6672 -83.4917 279° West 195 224 2,800 1,653 Climbing Cleveland Center
Mon 09:06:53 AM 42.7150 -83.4967 356° North 243 280 4,400 2,192 Climbing Cleveland Center
Mon 09:07:35 AM 42.7253 -83.4267 79° East 249 287 6,600 2,765 Climbing Cleveland Center
Mon 09:08:35 AM 42.7317 -83.3278 85° East 272 313 9,100 2,400 Climbing Cleveland Center
Mon 09:09:35 AM 42.7172 -83.2339 102° East 283 326 11,400 2,150 Climbing Cleveland Center
Mon 09:10:35 AM 42.6756 -83.1447 122° Southeast 263 303 13,400 1,900 Climbing Cleveland Center
Mon 09:11:35 AM 42.6319 -83.0469 121° Southeast 283 326 15,200 1,750 Climbing Cleveland Center
Mon 09:12:35 AM 42.5883 -82.9408 119° Southeast 308 354 16,900 1,400 Climbing Cleveland Center
Mon 09:13:35 AM 42.5614 -82.8242 107° East 315 362 18,000 1,300 Climbing Cleveland Center
Mon 09:14:35 AM 42.5492 -82.6969 97° East 324 373 19,500 1,350 Climbing Cleveland Center
Mon 09:15:35 AM 42.5369 -82.5669 97° East 334 384 20,700 1,150 Climbing Cleveland Center
Mon 09:16:35 AM 42.5267 -82.4314 96° East 350 403 21,800 1,050 Climbing Cleveland Center
Mon 09:17:35 AM 42.5122 -82.2872 98° East 367 422 22,800 1,050 Climbing Cleveland Center
Mon 09:18:35 AM 42.5017 -82.1489 96° East 372 428 23,900 1,100 Climbing Cleveland Center
Mon 09:19:35 AM 42.4889 -82.0078 97° East 372 428 25,000 1,050 Climbing Cleveland Center
Mon 09:20:35 AM 42.4739 -81.8639 98° East 372 428 26,000 1,050 Climbing Cleveland Center
Mon 09:21:35 AM 42.4650 -81.7203 95° East 372 428 27,100 1,200 Climbing Cleveland Center
Mon 09:22:35 AM 42.4497 -81.5819 98° East 372 428 28,400 1,300 Climbing Cleveland Center
Mon 09:23:35 AM 42.4319 -81.4467 100° East 372 428 29,700 1,100 Climbing Cleveland Center
Mon 09:24:35 AM 42.4161 -81.3256 100° East 372 428 30,600 850 Climbing Cleveland Center
Mon 09:25:35 AM 42.3961 -81.1847 101° East 372 428 31,400 700 Climbing Cleveland Center
Mon 09:26:35 AM 42.3758 -81.0469 101° East 372 428 32,000 600 Climbing Cleveland Center
Mon 09:27:35 AM 42.3556 -80.9036 101° East 379 436 32,600 600 Climbing Cleveland Center
Mon 09:28:35 AM 42.3331 -80.7600 102° East 391 450 33,200 600 Climbing Cleveland Center
Mon 09:29:35 AM 42.3100 -80.6083 102° East 397 457 33,800 600 Climbing Cleveland Center
Mon 09:30:35 AM 42.2872 -80.4483 101° East 397 457 34,400 550 Climbing Cleveland Center
Mon 09:31:35 AM 42.2661 -80.2997 101° East 397 457 34,900 550 Climbing Cleveland Center
Mon 09:32:35 AM 42.2428 -80.1542 102° East 397 457 35,500 550 Climbing Cleveland Center
Mon 09:33:35 AM 42.2211 -80.0083 101° East 397 457 36,000 500 Climbing Cleveland Center
Mon 09:34:35 AM 42.1997 -79.8797 103° East 392 451 36,500 500 Climbing Cleveland Center
Mon 09:35:35 AM 42.1778 -79.7314 101° East 392 451 37,000 250 Climbing Cleveland Center
Mon 09:36:35 AM 42.1558 -79.5833 101° East 392 451 37,000  Level Cleveland Center
Mon 09:37:35 AM 42.1294 -79.4381 104° East 392 451 37,000  Level Cleveland Center
Mon 09:38:35 AM 42.1050 -79.2875 102° East 397 457 37,000  Level Cleveland Center
Mon 09:39:35 AM 42.0822 -79.1339 101° East 402 463 37,000  Level Cleveland Center
Mon 09:40:35 AM 42.0553 -78.9808 103° East 407 468 37,000  Level Cleveland Center
Mon 09:41:35 AM 42.0300 -78.8278 102° East 419 482 37,000  Level Cleveland Center
Mon 09:42:35 AM 42.0067 -78.6775 102° East 419 482 37,000  Level Cleveland Center
Mon 09:43:35 AM 41.9811 -78.5244 103° East 414 476 37,000  Level Cleveland Center
Mon 09:44:35 AM 41.9553 -78.3717 103° East 414 476 37,000  Level Cleveland Center
Mon 09:45:35 AM 41.9272 -78.2192 104° East 414 476 37,000  Level Cleveland Center
Mon 09:47:30 AM 41.8731 -77.9158 103° East 412 474 37,000 -341 Level New York Center
Mon 09:48:31 AM 41.8422 -77.7678 106° East 417 480 36,000 -984 Descending New York Center
Mon 09:49:32 AM 41.8028 -77.6217 110° East 417 480 35,000 -504 Descending New York Center
Mon 09:50:30 AM 41.7633 -77.4756 110° East 417 480 35,000  Level New York Center
Mon 09:51:30 AM 41.7236 -77.3272 110° East 422 486 35,000  Level New York Center
Mon 09:52:32 AM 41.6858 -77.1789 109° East 422 486 35,000  Level New York Center
Mon 09:53:32 AM 41.6439 -77.0306 111° Southeast 422 486 35,000 -814 Level New York Center
Mon 09:54:30 AM 41.6036 -76.8825 110° East 422 486 33,400 -1,650 Descending New York Center
Mon 09:55:32 AM 41.5633 -76.7319 110° East 422 486 31,700 -1,800 Descending New York Center
Mon 09:56:30 AM 41.5228 -76.5842 110° East 422 486 29,800 -1,678 Descending New York Center
Mon 09:57:30 AM 41.4892 -76.4594 110° East 429 494 28,400 -1,636 Descending New York Center
Mon 09:58:31 AM 41.4472 -76.2897 108° East 435 501 26,500 -2,066 Descending New York Center
Mon 09:59:32 AM 41.3983 -76.1336 113° Southeast 448 516 24,200 -2,218 Descending New York Center
Mon 10:00:30 AM 41.3550 -75.9836 111° Southeast 441 507 22,100 -2,218 Descending New York Center
Mon 10:01:31 AM 41.3114 -75.8339 111° Southeast 436 502 19,800 -2,016 Descending New York Center
Mon 10:02:32 AM 41.2719 -75.6844 109° East 436 502 18,000 -2,033 Descending New York Center
Mon 10:03:32 AM 41.2253 -75.5489 115° Southeast 412 474 15,700 -2,200 Descending New York Center
Mon 10:04:32 AM 41.1808 -75.4106 113° Southeast 406 467 13,600 -1,678 Descending New York Center
Mon 10:05:30 AM 41.1322 -75.2694 115° Southeast 389 448 12,400 -1,850 Descending New York Center
Mon 10:06:32 AM 41.0947 -75.1542 113° Southeast 357 411 9,900 -2,262 Descending New York Center
Mon 10:07:32 AM 41.0628 -75.0611 114° Southeast 322 371 7,800 -1,950 Descending New York Center
Mon 10:08:32 AM 41.0250 -74.9544 115° Southeast 296 341 6,000 -915 Descending New York Center
Mon 10:09:30 AM 41.0178 -74.8658 96° East 267 307 6,000 -655 Level New York Center
Mon 10:10:31 AM 41.0172 -74.7614 90° East 258 297 4,700 -992 Descending New York Center
Mon 10:11:31 AM 41.0181 -74.6733 89° East 252 290 4,000 -356 Descending New York Center
Mon 10:12:29 AM 40.9531 -74.6231 150° Southeast 221 254 4,000  Level New York Center
Mon 10:13:31 AM 40.8883 -74.6275 183° South 210 242 4,000 -49 Level New York Center
Mon 10:14:31 AM 40.8128 -74.6369 185° South 244 281 3,900 -298 Descending New York Center
Mon 10:15:32 AM 40.7661 -74.5986 148° Southeast 208 239 3,400 -454 Descending New York Center
Mon 10:16:30 AM 40.7544 -74.5078 100° East 222 255 3,000 -203 Descending New York Center
Mon 10:17:30 AM 40.7408 -74.4139 101° East 242 278 3,000 -298 Level New York Center
Mon 10:18:31 AM 40.7306 -74.3447 101° East 218 251 2,400 -496 Descending New York Center
Mon 10:19:31 AM 40.7264 -74.2706 94° East 193 222 2,000 -347 Descending New York Center
Mon 10:20:32 AM 40.7467 -74.2169 63° Northeast 174 200 1,700 -248 Descending New York Center
Mon 10:21:32 AM 40.7817 -74.1639 49° Northeast 174 200 1,500 -397 Descending New York Center
Mon 10:22:48 AM 40.8167 -74.1000 54° Northeast 136 157 800 -553 Descending New York TRACON
Mon 10:24:00 AM 40.8500 -74.0500 69° East  Level FlightAware Approximate
Mon 10:31:00 AM 40.8501 -74.0608 69° East  Level Estimated
Mon 10:32:00 AM 40.8501 -74.0608 69° East  Level Estimated

Login

Don't have an account? Register now (free) for customized features, flight alerts, and more!